EW1895 Weather Reports


time (UTC)temp
C
wind
direction
speed
KPH
gust
KPH
rain 1hr
cm
rain 24hr
cm
rain mn
cm
humidity
%
barometer
mb
20260904210023 27 337 14.5 32.2 0.00 0.00 0.00 75 1012.9
20260904204508 36 286 3.2 14.5 0.00 0.00 0.00 58 1012.2
20260904201507 37 241 0.0 1.6 0.00 0.00 0.00 50 1011.1
20260904200005 37 123 0.0 1.6 0.00 0.00 0.00 50 1011.3
20260904194502 37 252 0.0 0.0 0.00 0.00 0.00 50 1011.9
20260904191556 38 202 0.0 0.0 0.00 0.00 0.00 45 1012.3
20260904190055 37 202 0.0 0.0 0.00 0.00 0.00 48 1012.3
20260904184549 37 281 0.0 0.0 0.00 0.00 0.00 49 1012.6
20260904181549 37 340 0.0 1.6 0.00 0.00 0.00 50 1013.2
20260904180040 36 322 0.0 0.0 0.00 0.00 0.00 52 1013.5
20260904174542 36 332 0.0 1.6 0.00 0.00 0.00 53 1013.6
20260904171632 36 161 0.0 1.6 0.00 0.00 0.00 51 1013.9
20260904170031 36 232 0.0 0.0 0.00 0.00 0.00 52 1013.8
20260904164528 36 232 0.0 1.6 0.00 0.00 0.00 53 1013.9
20260904161532 35 246 0.0 1.6 0.00 0.00 0.00 56 1014.1
20260904160020 35 159 0.0 3.2 0.00 0.00 0.00 55 1014.3
20260904154516 35 324 0.0 4.8 0.00 0.00 0.00 57 1014.5
20260904151510 34 305 0.0 0.0 0.00 0.00 0.00 59 1014.4
20260904150016 33 305 0.0 0.0 0.00 0.00 0.00 62 1014.5
20260904144501 33 305 0.0 0.0 0.00 0.00 0.00 65 1014.4
20260904141558 31 305 0.0 0.0 0.00 0.00 0.00 72 1014.3
20260904140053 30 305 0.0 0.0 0.00 0.00 0.00 75 1014.2
20260904134549 28 305 0.0 0.0 0.00 0.00 0.00 80 1014.4
20260904131554 25 305 0.0 0.0 0.00 0.00 0.00 89 1014.3
20260904130040 25 305 0.0 0.0 0.00 0.00 0.00 91 1014.3
20260904124537 24 305 0.0 0.0 0.00 0.00 0.00 93 1014.2
20260904121537 23 305 0.0 0.0 0.00 0.00 0.00 93 1014.3
20260904120045 23 305 0.0 0.0 0.00 0.00 0.00 94 1014.2
20260904114536 22 305 0.0 0.0 0.00 0.00 0.00 94 1014.1
20260904111541 22 305 0.0 0.0 0.00 0.00 0.00 94 1014.0
20260904110034 22 305 0.0 0.0 0.00 0.00 0.00 94 1014.0
20260904104534 22 305 0.0 0.0 0.00 0.00 0.00 93 1013.9
20260904101531 22 305 0.0 0.0 0.00 0.00 0.00 92 1013.9
20260904100031 22 305 0.0 0.0 0.00 0.00 0.00 92 1014.0
20260904094530 22 305 0.0 0.0 0.00 0.00 0.00 92 1014.0
20260904091528 22 305 0.0 0.0 0.00 0.00 0.00 91 1014.2
20260904090026 22 305 0.0 0.0 0.00 0.00 0.00 90 1014.3
20260904084525 23 305 0.0 0.0 0.00 0.00 0.00 90 1014.2
20260904081520 23 305 0.0 0.0 0.00 0.00 0.00 88 1014.0
20260904080018 23 305 0.0 0.0 0.00 0.00 0.00 88 1013.9
20260904074532 23 305 0.0 0.0 0.00 0.00 0.00 88 1013.7
20260904071514 24 305 0.0 0.0 0.00 0.00 0.00 84 1013.5
20260904070012 25 305 0.0 0.0 0.00 0.00 0.00 84 1013.4
20260904064515 25 305 0.0 0.0 0.00 0.00 0.00 85 1013.5
20260904061506 25 305 0.0 0.0 0.00 0.00 0.00 83 1013.5
20260904060006 26 305 0.0 1.6 0.00 0.00 0.00 81 1014.1
20260904054506 26 327 0.0 8.0 0.00 0.00 0.00 85 1014.8
20260904051502 26 5 0.0 0.0 0.00 0.00 0.00 89 1014.0
20260904050002 26 5 0.0 0.0 0.00 0.00 0.00 89 1014.1
20260904044502 26 5 0.0 0.0 0.00 0.00 0.00 88 1014.2
20260904041501 26 5 0.0 0.0 0.00 0.00 0.00 89 1014.4
20260904040110 26 5 0.0 0.0 0.00 0.00 0.00 90 1014.2
20260904034610 26 5 0.0 0.0 0.00 0.00 0.00 90 1014.2
20260904033200 26 5 0.0 0.0 0.00 0.00 0.00 91 1014.3
20260904031600 26 5 0.0 0.0 0.00 0.00 0.00 91 1014.3
20260904030059 26 5 0.0 0.0 0.00 0.00 0.00 91 1014.4
20260904024600 26 5 0.0 0.0 0.00 0.00 0.00 91 1014.3
20260904023159 26 5 0.0 0.0 0.00 0.00 0.00 91 1014.4
20260904021609 26 5 0.0 0.0 0.00 0.00 0.00 91 1014.2
20260904020059 26 5 0.0 0.0 0.00 0.00 0.00 91 1014.1
20260904014637 26 5 0.0 0.0 0.00 0.00 0.00 90 1014.3
20260904013159 27 5 0.0 0.0 0.00 0.00 0.00 89 1014.6
20260904011614 27 5 0.0 0.0 0.00 0.00 0.00 89 1014.6
20260904004559 27 5 0.0 0.0 0.00 0.00 0.00 89 1015.0
20260904003156 27 5 0.0 0.0 0.00 0.00 0.00 88 1015.0
20260904001554 28 5 0.0 0.0 0.00 0.00 0.00 87 1014.7
20260904000054 28 5 0.0 0.0 0.00 0.00 0.00 86 1014.5
20260903234554 28 5 0.0 0.0 0.00 0.00 0.00 84 1014.2
20260903233155 29 5 0.0 0.0 0.00 0.00 0.00 82 1014.0
20260903231553 30 5 0.0 0.0 0.00 0.00 0.00 81 1014.1
20260903230055 30 5 0.0 0.0 0.00 0.00 0.00 78 1014.0
20260903224552 31 5 0.0 0.0 0.00 0.00 0.00 74 1013.9
20260903223155 32 5 0.0 0.0 0.00 0.00 0.00 70 1013.7
20260903221551 32 5 0.0 0.0 0.00 0.00 0.00 68 1013.7
20260903220116 33 5 0.0 0.0 0.00 0.00 0.00 66 1013.9
20260903214548 33 5 0.0 0.0 0.00 0.00 0.00 66 1014.0
20260903213150 33 5 0.0 0.0 0.00 0.00 0.00 63 1014.0